CZ-3A DEB, 40813

Orbit data source: Space-Track

CZ-3A DEB, 40813 is space debris in HEO originally from a launch on Fri, 02 Feb 2007 UTC launched from the Xichang Space Center, China (XSC). Debris objects in space refer to the collection of defunct objects orbiting the Earth. Examples of debris include non-operational satellites, rocket bodies, and fragments generated from explosions, collisions, or faulty payload assembly.

Loading next visibility...
Identifier
40813, 2007-003AS
Orbit
HEO
Country
Flag of CNCN / PRC
Related business
Manufacturer
Unknown
Mission
Spacecraft
Bus & Motor
Unknown
Mass
Unknown
Launch date (UTC)
2007-02-02 (19 years ago)
Launch vehicle
Unknown
Launch site
Xichang Space Center, China (XSC)
Object type
Payload
Rocket body
Debris
Shape & HBR
Unknown shape, 0.3 m
Radar Cross Section
Medium (>0.1 m² and <1 m²)

Expand to show TLE details & history
Last TLE update: 18 hours ago

TLE from 18 hours ago
0 CZ-3A DEB
1 40813U 07003AS  25340.69306023  .00002564  00000-0  17367-1 0  9991
2 40813  26.0348 107.2344 7676091 114.6709 338.8037  1.72343517 81145
Epoch: 2025-12-06T16:38Z
TLE epoch observation values (Epoch: 2025-12-06T16:38:00.403Z)
Latitude
0.00002°
Longitude
141.81674°
Altitude
11,436.503 km
Speed
5.584 km/s
True Right ascension
07h 08m 08s
True Declination
0° 00' 00"
Sunlit
Object was in daylight at epoch
Visualization orbit readout
Latitude
Unknown
Longitude
Unknown
Altitude
Unknown
Speed
Unknown
Apparent Right ascension
Unknown
Apparent Declination
Unknown
Sunlit
N/A
Visualization observer readout
Local Sidereal Time
09:11:00
Azimuth
Unknown
Elevation
Unknown
Doppler factor
Unknown
Orbital elements
Apogee altitude
45,571.78 km
Perigee altitude
451.816 km
Semi-major axis
29,389.935 km
Eccentricity
0.76761
Inclination
26.0348°
RAAN
107.2344°
Arg. of periapsis
114.6709°
True anomaly
245.49409°
Mean anomaly
338.8037°
Eccentric anomaly
301.17366°
Mean motion
0.43077 °/min
Orbital period
835.71 mins
BSTAR
0.017367
Loading maneuver chart data...
Computing Atmospheric mass density...
Loading historical data...
Loading historical data...
Loading historical data...
Loading historical data...
Loading historical data...
Loading historical data...
Loading historical data...

Documentation

Showing up to 5 results
|